Regional Weather Roundup
Issued by NWS

Home | Current Version | Previous Version | Text Only | Print | Product List | Glossary Off
Versions: 1 2 3 4 5 6 7 8 9 10 11 12 13 14 15 16 17 18 19 20 21 22 23 24 25 26 27 28 29 30 31 32 33 34 35 36 37 38 39 40 41 42 43 44 45 46 47 48 49 50

000
ASUS43 KMKX 280900
RWRWI

WISCONSIN REGIONAL WEATHER ROUNDUP
NATIONAL WEATHER SERVICE MILWAUKEE/SULLIVAN WI
400 AM CDT THU AUG 28 2014

NOTE: "FAIR" INDICATES FEW OR NO CLOUDS BELOW 12,000 FEET WITH NO
SIGNIFICANT WEATHER AND/OR OBSTRUCTIONS TO VISIBILITY.

WIZ001-002-006>008-014>016-023>028-281000-
NORTHWEST WISCONSIN

CITY           SKY/WX    TMP DP  RH WIND       PRES   REMARKS
SUPERIOR ARPT  CLEAR     49  49 100 CALM      30.13S FOG
ASHLAND        MOCLDY    49  48  97 CALM      30.15F
HAYWARD        CLEAR     47  46  97 CALM      30.15F
SIREN          CLOUDY    56  54  91 SE3       30.13F
RICE LAKE      MOCLDY    54  51  89 CALM      30.16F
LADYSMITH      PTCLDY    52  49  89 E5        30.18S
EAU CLAIRE     NOT AVBL
MENOMONIE      SUNNY     56  55  94 CALM      30.14F
NEW RICHMOND   CLOUDY    60  55  82 CALM      30.13F
OSCEOLA        CLOUDY    62  55  80 SE3       30.15F
$$

WIZ003>005-009-010-017-018-281000-
NORTH CENTRAL WISCONSIN

CITY           SKY/WX    TMP DP  RH WIND       PRES   REMARKS
WOODRUFF       CLEAR     49  47  92 CALM      30.18S
RHINELANDER    CLEAR     45  44  97 CALM      30.18F
EAGLE RIVER    CLEAR     42  42 100 CALM      30.18F
LAND O LAKES   CLOUDY    42  42 100 CALM      30.20S
PHILLIPS       CLEAR     47  46  95 CALM      30.16F
TOMAHAWK       CLEAR     40  39  97 CALM      30.18S
MEDFORD        CLEAR     49  47  94 E5        30.17S
MERRILL        CLEAR     46  45  97 CALM      30.17F
$$

WIZ029-030-035-036-043>047-281000-
CENTRAL WISCONSIN

CITY           SKY/WX    TMP DP  RH WIND       PRES   REMARKS
WAUSAU         CLEAR     54  49  83 CALM      30.15F
MOSINEE        CLEAR     52  50  93 NE5       30.17S
MARSHFIELD     CLEAR     54  49  83 NE5       30.15F
STEVENS POINT  CLEAR     51  49  91 CALM      30.16F
WAUPACA        PTCLDY    57  56  95 CALM      30.15F
WAUTOMA        NOT AVBL
WISC RAPIDS    CLEAR     56  51  84 NE5       30.16F
CAMP DOUGLAS   NOT AVBL
$$

WIZ011>013-019>022-031-037>040-048>050-281000-
NORTHEAST WISCONSIN

CITY           SKY/WX    TMP DP  RH WIND       PRES   REMARKS
ANTIGO         CLEAR     47  47  98 CALM      30.18S
STURGEON BAY   MOCLDY    55  50  82 S3        30.18S
GREEN BAY      CLOUDY    59  57  93 N3        30.16F
MANITOWOC      NOT AVBL
APPLETON       MOCLDY    59  54  82 CALM      30.16S
CLINTONVILLE   CLOUDY    55  54  94 N3        30.16S
OSHKOSH        CLEAR     58  56  93 CALM      30.14F
$$

WIZ032>034-041-042-053>061-281000-
SOUTHWEST WISCONSIN

CITY           SKY/WX    TMP DP  RH WIND       PRES   REMARKS
LA CROSSE      CLEAR     60  58  92 CALM      30.11F
SPARTA         PTCLDY    53  52  95 CALM      30.13F
VIROQUA        FAIR      58  58 100 E3        30.13F
BOSCOBEL       FOG       61  59  93 NE3       30.12F VSB 1/4
PRAIRIE DU CHI FOG       59  58  96 E3        30.11S VSB 3/4
PLATTEVILLE    FAIR      61  60  95 E7        30.12F
$$

WIZ056-057-062-063-064-067-068-281000-
SOUTH CENTRAL WISCONSIN

CITY           SKY/WX    TMP DP  RH WIND       PRES   REMARKS
BARABOO/DELLS  NOT AVBL
LONE ROCK      NOT AVBL
WATERTOWN      CLEAR     56  56 100 CALM      30.14S FOG
MADISON        CLEAR     59  57  93 CALM      30.13F
MIDDLETON      FAIR      61  61  99 SE5       30.14F
MONROE         FOG       61  61 100 E5        30.13F VSB 1/4
JANESVILLE     CLEAR     61  59  94 CALM      30.13F
$$

WIZ051-052-058>065-066-070>072-281000-
SOUTHEAST WISCONSIN

CITY           SKY/WX    TMP DP  RH WIND       PRES   REMARKS
MILWAUKEE      CLEAR     61  55  81 E6        30.15S
WAUKESHA       PTCLDY    54  54 100 CALM      30.16F
MILWAUKEE/TIMM CLEAR     55  54  94 CALM      30.16F
RACINE         CLEAR     63  54  72 E6        30.16F
BURLINGTON     CLEAR     55  55 100 CALM      30.14F
KENOSHA        CLEAR     58  56  93 NE3       30.15F
FOND DU LAC    PTCLDY    58  56  93 S3        30.15F
SHEBOYGAN      CLOUDY    56  54  93 CALM      30.16S
WEST BEND      CLEAR     54  52  94 CALM      30.16F
JUNEAU         CLEAR     56  55  96 CALM      30.16S
$$

LSZ147-162-281000-
LAKE SUPERIOR

STATION/POSITION TIME  TEMP    WIND        PRES    WAVE
                       AIR SEA DIR/SP/G            HT/PER
                 (UTC) (F)     (DEG/KT/KT) (MB)    (FT/S)
W MID LAKE BUOY  0750   58 57  150/  6/  6 1020.9F   0
DEVILS ISLAND    0800   61     200/  6/  6 1020.7F
PORT WING        0840   58     150/  3/  5 1020.3F
SAXON HARBOR     0800   56     190/  4/  6 1021.0F
$$

LMZ867-665-643>646-281000-
LAKE MICHIGAN

STATION/POSITION TIME  TEMP    WIND        PRES    WAVE
                       AIR SEA DIR/SP/G            HT/PER
                 (UTC) (F)     (DEG/KT/KT) (MB)    (FT/S)
N MID LAKE BUOY  0750   63 65  140/  4/  6 1021.8F   1
NORTHPORT PIER   0800   62     160/  5/ 10 1021.7S
SISTER BAY       0641   59        CALM       N/A
ALGOMA LAKESHORE 0808          170/  8/ 10   N/A
KEWAUNEE LAKESHO 0800   63     130/  5/  9 1020.6S
SHEBOYGAN LAKESH 0800   63 70   CALM  /  1 1021.6S
ATWATER BUOY     0800   68     100/  8/ 10 1022.1R
MILWAUKEE LAKESH 0800   67     110/  8/  9   N/A
S MID LAKE BUOY  0750   66 69   70/ 12/ 16 1020.9R   1/ 3
KENOSHA   LAKESH 0800   69      90/ 10/ 11 1020.7S
$$

TC  - TEMPERATURE IN CELSIUS
VSB - VISIBILITY IN STATUTE MILES
WCI - WIND CHILL INDEX
HX  - HEAT INDEX




USA.gov is the U.S. government's official web portal to all federal, state and local government web resources and services.